Hourly Weather Kızılcahamam

Today, 30 July, Friday

Time Temperature Precipitation Wind Pressure Humidity
00:00 +18°C° 0 mm 2 mps 678 mmHg 56%
01:00 +18°C° 0 mm 2 mps 677 mmHg 57%
02:00 +18°C° 0 mm 2 mps 677 mmHg 58%
03:00 +17°C° 0 mm 2 mps 677 mmHg 56%
04:00 +17°C° 0 mm 2 mps 677 mmHg 54%
05:00 +17°C° 0 mm 2 mps 677 mmHg 52%
06:00 +20°C° 0 mm 2 mps 678 mmHg 45%
07:00 +23°C° 0 mm 2 mps 678 mmHg 37%
08:00 +26°C° 0 mm 2 mps 678 mmHg 30%
09:00 +28°C° 0 mm 3 mps 678 mmHg 28%
10:00 +29°C° 0 mm 3 mps 678 mmHg 25%
11:00 +32°C° 0 mm 4 mps 679 mmHg 23%
12:00 +32°C° 0 mm 5 mps 678 mmHg 23%
13:00 +33°C° 0 mm 5 mps 678 mmHg 22%
14:00 +33°C° 0 mm 6 mps 678 mmHg 22%
15:00 +33°C° 0 mm 6 mps 678 mmHg 24%
16:00 +32°C° 0 mm 6 mps 677 mmHg 26%
17:00 +32°C° 0 mm 6 mps 677 mmHg 27%
18:00 +28°C° 0 mm 5 mps 677 mmHg 35%
19:00 +26°C° 0 mm 4 mps 677 mmHg 42%
20:00 +22°C° 0 mm 3 mps 677 mmHg 49%
21:00 +22°C° 0 mm 3 mps 677 mmHg 51%
22:00 +21°C° 0 mm 3 mps 677 mmHg 54%
23:00 +20°C° 0 mm 2 mps 677 mmHg 56%

Tomorrow, 31 July, Saturday

Time Temperature Precipitation Wind Pressure Humidity
00:00 +19°C° 0 mm 2 mps 677 mmHg 57%
01:00 +19°C° 0 mm 2 mps 677 mmHg 58%
02:00 +18°C° 0 mm 2 mps 677 mmHg 60%
03:00 +18°C° 0 mm 2 mps 677 mmHg 59%
04:00 +18°C° 0 mm 2 mps 677 mmHg 58%
05:00 +18°C° 0 mm 2 mps 676 mmHg 58%
06:00 +21°C° 0 mm 2 mps 677 mmHg 50%
07:00 +24°C° 0 mm 3 mps 677 mmHg 42%
08:00 +27°C° 0 mm 3 mps 678 mmHg 33%
09:00 +28°C° 0 mm 3 mps 678 mmHg 30%
10:00 +30°C° 0 mm 4 mps 678 mmHg 27%
11:00 +32°C° 0 mm 5 mps 678 mmHg 23%
12:00 +32°C° 0 mm 5 mps 678 mmHg 23%
13:00 +33°C° 0 mm 5 mps 678 mmHg 22%
14:00 +33°C° 0 mm 5 mps 677 mmHg 22%
15:00 +33°C° 0 mm 5 mps 677 mmHg 23%
16:00 +32°C° 0 mm 5 mps 677 mmHg 24%
17:00 +32°C° 0 mm 4 mps 677 mmHg 25%
18:00 +28°C° 0 mm 4 mps 677 mmHg 32%
19:00 +26°C° 0 mm 3 mps 677 mmHg 40%
20:00 +22°C° 0 mm 3 mps 677 mmHg 48%
21:00 +21°C° 0 mm 2 mps 677 mmHg 51%
22:00 +20°C° 0 mm 2 mps 677 mmHg 53%
23:00 +20°C° 0 mm 2 mps 677 mmHg 56%

Day after tomorrow, 1 August, Sunday

Time Temperature Precipitation Wind Pressure Humidity
00:00 +19°C° 0 mm 2 mps 677 mmHg 57%
01:00 +20°C° 0 mm 1 mps 677 mmHg 59%
02:00 +20°C° 0 mm 1 mps 677 mmHg 60%
03:00 +19°C° 0 mm 1 mps 677 mmHg 61%
04:00 +19°C° 0 mm 1 mps 677 mmHg 62%
05:00 +19°C° 0 mm 1 mps 677 mmHg 63%
06:00 +21°C° 0 mm 1 mps 677 mmHg 56%
07:00 +24°C° 0 mm 1 mps 677 mmHg 49%
08:00 +26°C° 0 mm 1 mps 678 mmHg 41%
09:00 +28°C° 0 mm 1 mps 678 mmHg 36%
10:00 +29°C° 0 mm 2 mps 678 mmHg 31%
11:00 +31°C° 0 mm 2 mps 678 mmHg 26%
12:00 +33°C° 0 mm 3 mps 678 mmHg 24%
13:00 +33°C° 0 mm 3 mps 678 mmHg 23%
14:00 +34°C° 0 mm 4 mps 678 mmHg 21%
15:00 +34°C° 0 mm 4 mps 678 mmHg 22%
16:00 +33°C° 0 mm 5 mps 677 mmHg 23%
17:00 +33°C° 0 mm 5 mps 677 mmHg 24%
18:00 +29°C° 0 mm 4 mps 677 mmHg 34%
19:00 +26°C° 0 mm 3 mps 677 mmHg 45%
20:00 +22°C° 0 mm 3 mps 677 mmHg 55%
21:00 +23°C° 0 mm 2 mps 677 mmHg 58%
22:00 +21°C° 0 mm 2 mps 677 mmHg 61%
23:00 +20°C° 0 mm 2 mps 677 mmHg 64%

2 August, Monday

Time Temperature Precipitation Wind Pressure Humidity
00:00 +20°C° 0 mm 2 mps 677 mmHg 66%
01:00 +21°C° 0 mm 1 mps 677 mmHg 67%
02:00 +20°C° 0 mm 1 mps 677 mmHg 69%
03:00 +20°C° 0 mm 1 mps 677 mmHg 70%
04:00 +20°C° 0 mm 1 mps 677 mmHg 71%
05:00 +19°C° 0 mm 1 mps 677 mmHg 72%
06:00 +22°C° 0 mm 1 mps 677 mmHg 63%
07:00 +24°C° 0 mm 1 mps 678 mmHg 53%
08:00 +27°C° 0 mm 1 mps 678 mmHg 44%
09:00 +29°C° 0 mm 1 mps 678 mmHg 38%
10:00 +30°C° 0 mm 1 mps 678 mmHg 32%
11:00 +32°C° 0 mm 2 mps 679 mmHg 25%
12:00 +34°C° 0 mm 2 mps 678 mmHg 23%
13:00 +35°C° 0 mm 3 mps 678 mmHg 21%
14:00 +35°C° 0 mm 3 mps 678 mmHg 19%
15:00 +35°C° 0 mm 4 mps 678 mmHg 20%
16:00 +35°C° 0 mm 4 mps 678 mmHg 20%
17:00 +34°C° 0 mm 4 mps 678 mmHg 21%
18:00 +30°C° 0 mm 4 mps 678 mmHg 27%
19:00 +28°C° 0 mm 3 mps 677 mmHg 33%
20:00 +25°C° 0 mm 2 mps 677 mmHg 40%
21:00 +24°C° 0 mm 2 mps 677 mmHg 44%
22:00 +24°C° 0 mm 2 mps 677 mmHg 49%
23:00 +23°C° 0 mm 2 mps 677 mmHg 53%

3 August, Tuesday

Time Temperature Precipitation Wind Pressure Humidity
00:00 +21°C° 0 mm 2 mps 677 mmHg 55%
01:00 +22°C° 0 mm 1 mps 677 mmHg 56%
02:00 +21°C° 0 mm 1 mps 677 mmHg 58%
03:00 +21°C° 0 mm 1 mps 677 mmHg 57%
04:00 +21°C° 0 mm 1 mps 677 mmHg 56%
05:00 +20°C° 0 mm 1 mps 677 mmHg 56%
06:00 +23°C° 0 mm 1 mps 678 mmHg 47%
07:00 +26°C° 0 mm 1 mps 678 mmHg 38%
08:00 +29°C° 0 mm 1 mps 679 mmHg 29%
09:00 +31°C° 0 mm 2 mps 679 mmHg 24%
10:00 +33°C° 0 mm 3 mps 679 mmHg 20%
11:00 +35°C° 0 mm 3 mps 679 mmHg 16%
12:00 +36°C° 0 mm 4 mps 679 mmHg 17%
13:00 +36°C° 0 mm 5 mps 679 mmHg 17%
14:00 +38°C° 0 mm 6 mps 679 mmHg 18%
15:00 +36°C° 0 mm 6 mps 679 mmHg 19%
16:00 +36°C° 0 mm 6 mps 679 mmHg 20%
17:00 +35°C° 0 mm 6 mps 679 mmHg 22%
18:00 +32°C° 0 mm 5 mps 679 mmHg 30%
19:00 +28°C° 0 mm 4 mps 679 mmHg 38%
20:00 +26°C° 0 mm 3 mps 679 mmHg 46%
21:00 +25°C° 0 mm 3 mps 679 mmHg 48%
22:00 +24°C° 0 mm 2 mps 679 mmHg 50%
23:00 +23°C° 0 mm 2 mps 680 mmHg 52%

4 August, Wednesday

Time Temperature Precipitation Wind Pressure Humidity
00:00 +21°C° 0 mm 2 mps 680 mmHg 53%
01:00 +21°C° 0 mm 2 mps 680 mmHg 54%
02:00 +20°C° 0 mm 2 mps 680 mmHg 56%
03:00 +20°C° 0 mm 2 mps 680 mmHg 56%
04:00 +20°C° 0 mm 2 mps 680 mmHg 57%
05:00 +19°C° 0 mm 2 mps 680 mmHg 57%
06:00 +23°C° 0 mm 1 mps 680 mmHg 49%
07:00 +26°C° 0 mm 1 mps 681 mmHg 40%
08:00 +29°C° 0 mm 1 mps 681 mmHg 32%
09:00 +30°C° 0 mm 1 mps 681 mmHg 28%
10:00 +32°C° 0 mm 1 mps 681 mmHg 25%
11:00 +34°C° 0 mm 1 mps 681 mmHg 21%
12:00 +35°C° 0 mm 2 mps 681 mmHg 20%
13:00 +36°C° 0 mm 3 mps 681 mmHg 20%
14:00 +37°C° 0 mm 4 mps 681 mmHg 19%
15:00 +36°C° 0 mm 4 mps 681 mmHg 21%
16:00 +35°C° 0 mm 5 mps 680 mmHg 23%
17:00 +35°C° 0 mm 5 mps 680 mmHg 25%
18:00 +32°C° 0 mm 4 mps 680 mmHg 35%
19:00 +28°C° 0 mm 3 mps 680 mmHg 45%
20:00 +26°C° 0 mm 2 mps 680 mmHg 55%
21:00 +25°C° 0 mm 2 mps 680 mmHg 57%
22:00 +25°C° 0 mm 2 mps 680 mmHg 59%
23:00 +24°C° 0 mm 2 mps 680 mmHg 61%
Show more